sat.trackr.live / text

‹ back to catalog

ONEWEB-0168

NORAD 48068 · 2021-025AC

PAYLOAD ACTIVE UNKNOWN

§ Identity

Operator
Country
UK
Launch date
2021-03-25
Launch site
VOSTO
Launch vehicle
Mass (kg)
RCS (m²)

Purposes: comms

External: N2YO · Heavens-Above · Gunter

§ Orbital elements

Epoch: 2026-05-25T01:26:26.566080Z

Period
109.63 min
Inclination
87.8951°
Eccentricity
0.0001735
Mean motion
13.13467973 rev/d
Perigee alt
1,208.5 km
Apogee alt
1,211.1 km
Semi-major
7,587.9 km
B*
-8.8764e-4
RAAN
324.8265°
Arg perigee
97.4431°
Mean anomaly
262.6895°
Rev number
25,052

§ Raw data

ONEWEB-01681 48068U 21025AC  26145.06002970 -.00000311  00000+0 -88764-3 0  99902 48068  87.8951 324.8265 0001735  97.4431 262.6895 13.13467973250526

JSON: /api/v1/satellites/48068 · /tle

For live sub-satellite position, see the globe view (requires WebGL).

§ Visibility from observer

Set your observer location to see the next 7 days of passes ≥ 10°. The values pass through the URL so the page stays shareable.

No JS? Fill the form by hand. The geolocation button needs JavaScript.